Regional Weather Roundup
Issued by NWS Charleston, WV

Home | Current Version | Previous Version | Graphics & Text | Print | Product List | Glossary On
Versions: 1 2 3 4 5 6 7 8 9 10 11 12 13 14 15 16 17 18 19 20 21 22 23 24 25 26 27 28 29 30 31 32 33 34 35 36 37 38 39 40 41 42 43 44 45 46 47 48 49 50
000
ASUS41 KRLX 150710
RWRRLX
West Virginia Regional Weather Roundup
National Weather Service Charleston WV
300 AM EDT MON SEP 15 2014

Note: "fair" indicates few or no clouds below 12,000 feet with no
significant weather and/or obstructions to visibility.

WVZ003-150800-
Northern Panhandle of West Virginia

CITY           SKY/WX    TMP DP  RH WIND       PRES   REMARKS
WHEELING       CLEAR     48  45  89 CALM      30.23F
$$

WVZ009-150800-
Northwest West Virginia

CITY           SKY/WX    TMP DP  RH WIND       PRES   REMARKS
PARKERSBURG    CLEAR     45  43  93 CALM      30.26S
$$

WVZ006-150800-
Western West Virginia

CITY           SKY/WX    TMP DP  RH WIND       PRES   REMARKS
HUNTINGTON     MOCLDY    49  49 100 CALM      30.21F FOG
$$

WVZ015-150800-
West Central West Virginia

CITY           SKY/WX    TMP DP  RH WIND       PRES   REMARKS
CHARLESTON     NOT AVBL
$$

WVZ031-150800-
North Central West Virginia

CITY           SKY/WX    TMP DP  RH WIND       PRES   REMARKS
CLARKSBURG     FOG       50  49  96 CALM      30.23F VSB 1/4
MORGANTOWN     CLEAR     50  45  83 CALM      30.24F
$$

WVZ035-042-045-150800-
South Central West Virginia

CITY           SKY/WX    TMP DP  RH WIND       PRES   REMARKS
BECKLEY        CLOUDY    57  56  96 CALM      30.24F FOG
BLUEFIELD      FOG       57  54  89 CALM      30.25F VSB 1/4
LEWISBURG      FOG       53  51  94 CALM      30.24F VSB 1/2
$$

WVZ047-150800-
Northern Mountains of West Virginia

CITY           SKY/WX    TMP DP  RH WIND       PRES   REMARKS
ELKINS         FOG       53  51  93 CALM      30.26S VSB 1/4
$$

WVZ052-150800-
Eastern Panhandle of West Virginia

CITY           SKY/WX    TMP DP  RH WIND       PRES   REMARKS
MARTINSBURG    PTCLDY    51  47  86 CALM      30.23F
PETERSBURG     FOG       51  49  93 CALM      30.24F VSB 1/4
$$



USA.gov is the U.S. government's official web portal to all federal, state and local government web resources and services.